Regional Weather Roundup
Issued by NWS Wakefield, VA

Home | Current Version | Previous Version | Text Only | Print | Product List | Glossary Off
Versions: 1 2 3 4 5 6 7 8 9 10 11 12 13 14 15 16 17 18 19 20 21 22 23 24 25 26 27 28 29 30 31 32 33 34 35 36 37 38 39 40 41 42 43 44 45 46 47 48 49 50

000
ASUS41 KAKQ 281510
RWRAKQ

REGIONAL WEATHER ROUNDUP
NATIONAL WEATHER SERVICE WAKEFIELD VA
1000 AM EST SAT FEB 28 2015

Note: "fair" indicates few or no clouds below 12,000 feet with no
significant weather and/or obstructions to visibility. * = Denotes
station may not report precipitation (e.g., rain,snow,etc.),
thunder or fog.

VAZ042-051-052>054-056-281600-
NORTHERN VIRGINIA

CITY           SKY/WX    TMP DP  RH WIND       PRES   REMARKS
WASH NATIONAL  PTSUNNY   25  -1  32 CALM      30.88R
DULLES         PTSUNNY   20  -3  36 N3        30.87R
FORT BELVOIR   MOSUNNY   23  -3  32 VRB3      30.88R
QUANTICO       MOSUNNY   24   0  35 VRB6      30.90R
FREDERICKSBRG* MOSUNNY   25   2  37 N3        30.87S
STAFFORD*      MOSUNNY   22  -2  34 NE7       30.91S
WARRENTON      MOSUNNY   25   9  50 NE7       30.85S
CULPEPER*      FAIR      23   3  42 N6        30.86S
MANASSAS*      SUNNY     21   5  49 NE3       30.88R
LEESBURG*      SUNNY     23   3  42 NE6       30.87R
WINCHESTER     SUNNY     25  -6  26 CALM      30.82R
FRONT ROYAL*   FAIR      19   1  45 CALM      30.82R
LURAY*         FAIR      25   7  46 N3        30.80S
$$

VAZ048-049-060>072-079>083-281600-
CENTRAL AND SOUTH CENTRAL VIRGINIA

CITY           SKY/WX    TMP DP  RH WIND       PRES   REMARKS
RICHMOND       CLOUDY    27   3  35 NE6       30.85S
CHESTERFIELD*  FAIR      27   0  31 NE9       30.86R
PETERSBURG*    MOSUNNY   28   4  36 NE9       30.85S
HANOVER        MOSUNNY   26   2  35 N6        30.87R
TAPPAHANNOCK*  MOSUNNY   26  -1  31 N7        30.87R
QUINTON*       FAIR      25   4  39 N5        30.85S
CHARLOTTSVILLE MOSUNNY   21   2  43 E5        30.82F
GORDONSVILLE*  FAIR      20   1  43 N9        30.84S
ORANGE*        MOSUNNY   23   5  46 N7        30.86S
LOUISA*        MOSUNNY   25   3  39 N6        30.83R
BUMPASS*       FAIR      23   2  40 CALM      30.85R
FARMVILLE*     MOSUNNY   28   6  38 NE5       30.82S
CREWE*         FAIR      26   3  36 N6        30.83R
FORT PICKETT*  FAIR      26   4  39 NE7       30.83R
CHASE CITY*    FAIR      26   7  45 NE3       30.81S
CLARKSVILLE*   FAIR      27   7  43 NE10      30.80F WCI  17
SOUTH HILL*    SUNNY     25   3  39 NE6       30.87S
LAWRENCEVILLE* FAIR      26   5  40 N6        30.82S
EMPORIA*       MOSUNNY   27   7  43 N9        30.85S
$$

VAZ088>098-281600-
SOUTHEAST VIRGINIA

CITY           SKY/WX    TMP DP  RH WIND       PRES   REMARKS
NORFOLK        SUNNY     27  12  53 N15       30.83R WCI  15
VIRGINIA BEACH PTSUNNY   30  16  56 N12       30.82R WCI  20
NORFOLK NAVAL  PTSUNNY   30  14  51 NE13      30.84S WCI  20
WEST POINT*    SUNNY     29   4  34 N5        30.87R
SALUDA*        FAIR      25   9  51 CALM      30.85R
NEWPORT NEWS   SUNNY     29  11  47 NE8       30.83S
LANGLEY AFB    SUNNY     26  12  55 NE12      30.83S WCI  16
FORT EUSTIS    PTSUNNY   27  11  50 NE5       30.82F
WILLIAMSBURG*  SUNNY     30  16  55 N5        30.84F
HR EXEC AP*    FAIR      28  14  54 NE14      30.84F WCI  17
FRANKLIN*      MOSUNNY   27   7  42 N10       30.84S WCI  18
WAKEFIELD      SUNNY     28   5  37 VRB6      30.84F
$$

VAZ020-022-025-037-045-281600-
WEST CENTRAL AND SOUTHWEST VIRGINIA

CITY           SKY/WX    TMP DP  RH WIND       PRES   REMARKS
STAUNTON*      MOSUNNY   18   3  51 CALM      30.79S
WAYNESBORO*    CLOUDY    16   3  57 CALM      30.74F
HOT SPRINGS VA SUNNY     15   4  62 SE6       30.51R
LYNCHBURG      MOSUNNY   20   4  50 NE6       30.80S
DANVILLE       CLOUDY    26   9  48 NE10      30.80S WCI  16
SOUTH BOSTON*  FAIR      25   5  41 NE7       30.81F
MARTINSVILLE   MOSUNNY   28  12  51 SE7       30.79S
ROANOKE        PTSUNNY   22   6  50 SE6       30.77S
BLACKSBURG     SUNNY     21   9  58 E6        30.69R
DUBLIN*        MOSUNNY   22  12  67 NE3       30.67S
MARION*        MOSUNNY   20   8  59 E9        30.63S
HILLSVILLE*    MOSUNNY   22  14  72 SE5       30.60S
RICHLANDS*     FAIR      29  11  47 SE3       30.53S
WISE*          MOSUNNY   32  14  47 E5        30.53S
ABINGDON*      MOSUNNY   28  12  53 E10       30.58R WCI  18
$$

MDZ021>025-VAZ099-100-281600-
SOUTHERN MARYLAND AND THE DELMARVA PENINSULA

CITY           SKY/WX    TMP DP  RH WIND       PRES   REMARKS
PATUXENT RIVER CLOUDY    23   6  48 N9        30.86R
BAY BRIDGE APT   N/A     21   3  45 N7        30.87R
LEONARDTOWN    PTSUNNY   25   5  42 NE7       30.87R
DOVER          PTSUNNY   23   6  48 NW8       30.84F
GEORGETOWN     PTSUNNY   31   4  31 N10       30.84S WCI  22
EASTON         MOSUNNY   25   7  46 NE9       30.89R
CAMBRIDGE      PTSUNNY   25   5  42 N5        30.85R
SALISBURY      PTSUNNY   26   7  44 NE10      30.83S WCI  16
OCEAN CITY     MOSUNNY   24   9  52 NE13      30.84R WCI  12
WALLOPS ISLAND MOSUNNY   25  11  55 NE8       30.84R
ACCOMACK*      SUNNY     27   9  46 NE6       30.84R
$$

NCZ012>017-030>032-281600-
NORTH CENTRAL AND EASTERN NORTH CAROLINA

CITY           SKY/WX    TMP DP  RH WIND       PRES   REMARKS
ROANOKE RAPIDS FAIR      28   9  43 NE10G17   30.82F WCI  19
RALEIGH        PTSUNNY   28  12  51 NE12      30.79R WCI  18
ELIZABETH CITY MOSUNNY   32  16  51 N12       30.81R WCI  23
AHOSKIE*       MOSUNNY   28   7  41 N10G21    30.82S WCI  18
EDENTON*       SUNNY     32  16  51 NE10      30.80R WCI  24
CURRITUCK*     SUNNY     31  16  53 N15G23    30.81R WCI  20
KILL DEVIL HLS SUNNY     34  22  60 N10G17    30.77R
MANTEO         SUNNY     34  21  60 N16G25    30.78R WCI  23
CAPE HATTERAS  PTSUNNY   36  28  73 NE16G29   30.71R
TARBORO*       CLOUDY    30  13  48 N10       30.81F WCI  21
GOLDSBORO      PTSUNNY   31  25  77 N13       30.76R WCI  22
WASHINGTON     SUNNY     33  17  51 NE13G18   30.78S WCI  24
GREENVILLE     SUNNY     32  19  59 NE10      30.78R WCI  24
NEW BERN       MOSUNNY   36  22  56 NE10      30.76R
WILMINGTON     PTSUNNY   37  26  64 N15       30.71R
$$

VAZ048-281600-
ELSEWHERE

CITY           SKY/WX    TMP DP  RH WIND       PRES   REMARKS
HARRISBURG PA  MOSUNNY   19  -2  39 VRB3      30.83R
BALTIMORE      PTSUNNY   20  -1  40 N5        30.86R
ANNAPOLIS      PTSUNNY   21   2  43 N8        30.87R
ANDREWS AFB    MOSUNNY   21  -1  37 N6        30.85R
PHILADELPHIA   PTSUNNY   20  -3  36 N6        30.86S
HENDERSON NC   MOSUNNY   26   6  42 NE10G18   30.79S WCI  15
GREENSBORO     PTSUNNY   27  18  69 NE12      30.74R WCI  17
ROCKY MOUNT    CLOUDY    30  10  43 NE12      30.80S WCI  20
$$

VAZ100-281600-
MARINE

STATION/POSITION TIME  TEMP    WIND        PRES    WAVE   SWELL
                       AIR SEA DIR/SP/G            HT/PER HT/PER
                 (UTC) (F)     (DEG/KT/KT) (MB)    (FT/S) (FT/S)
BRANDYWINE LGT   1500   19 29   10/  7/ 10 1044.5R
CAPE MAY NJ      1500   21 32  350/  6/ 10 1043.9F
LEWES DE         1500   20 30   10/ 10/ 12 1044.5R
15NM E FENWICK I 1500   23 35              1043.4R   5/ 5
OCEAN-CITY-INLET 1500   23 31   30/ 11/ 15 1043.7R
WACHAPREAGUE VA  1500   26 31   40/  5/ 10 1044.1R
THOMAS POINT MD  1500   19 30   10/ 11/ 13 1046.3R
COVE POINT MD    1500   20      40/  8/ 10 1044.9R
SOLOMONS ISLAND  1500      32                N/A
BISHOPS HEAD MD  1500   23 30   20/  6/ 12 1044.1R
CAMBRIDGE MD     1500   21 32   20/  7/ 10 1044.7R
LEWISETTA VA     1500   24 32   30/  3/  7 1044.9R
RAPPAHANNOCK LGT 1500           10/ 13/ 14 1044.9R
STINGRAY PT      1500   24      20/ 12/ 14   N/A
YORK RVR RNG VA  1500   26      30/ 11/ 12 1043.5F
YORKTOWN VA      1500   25 32   10/  7/ 11 1044.0F
DOMINION TERM VA 1500   27      30/  8/ 14 1044.1F
KIPTOPEKE VA     1500      36   20/  5/  9   N/A
CHES BAY BRIDGE  1500   25 32  360/ 12/ 15 1043.6F
CAPE HENRY VA    1500   25     360/ 12/ 14 1042.4F
CHESAPEAKE LGHT  1400   26      10/ 15/ 17 1043.3R
WILLOUBY STN VA  1500   25      30/ 14/ 16 1044.5S
S CRANEY ISL VA  1500           30/ 12/ 15 1044.0R
CAPE HENRY BUOY  1500      35                N/A     5/ 6   2/11
1ST LANDING BUOY 1500   26      10/ 10/ 14 1043.6F
OFFSHORE WE BUOY 1500      37                N/A     5/ 5   3/11
64NM E OF VA BCH 1500   36 52   10/ 21/ 27 1040.2F   6/10   3/10
DUCK PIER NC     1500   30 34   10/ 15/ 19 1041.8R
44100 DUCK FRF   1500      37                N/A     7/ 6   2/11
44056 DUCK FRF   1500      34                N/A     6/ 7   2/11
OREGON INLET NC  1500   34 37  360/ 15/ 24 1041.2R
HATTERAS NC      1500   35 39   10/ 24/ 28 1039.9R
CAPE LOOKOUT NC  1500   36      20/ 18/ 24 1039.4R
$$



USA.gov is the U.S. government's official web portal to all federal, state and local government web resources and services.